Overview Statistics Trail Chart Weather Telemetry Raw packets
 

This is the latest recevied weather packets stored in our database for station/object NW5W-12. If no packets are shown the sender has not sent any weather packets the latest 10 day(s).

<< 91 92 93 94 95 96 97 >>
Time Temp. Humidity Pressure Rain* Wind** Luminosity Snow
1788028439 13.33° C 85% 1021.9 hPa 4.83 mm - - -
1788028139 13.33° C 84% 1022 hPa 4.83 mm - - -
1788027840 12.78° C 85% 1022.2 hPa 4.83 mm - - -
1788027540 12.78° C 85% 1022.2 hPa 4.83 mm - - -
1788027239 12.78° C 88% 1022.3 hPa 4.83 mm - - -
1788026940 12.78° C 89% 1022.2 hPa 4.83 mm - - -
1788026640 12.22° C 91% 1022.3 hPa 4.83 mm - - -
1788026340 12.22° C 93% 1022.3 hPa 4.83 mm - - -
1788026040 11.67° C 95% 1022.3 hPa 4.83 mm - - -
1788025740 11.67° C 96% 1022.4 hPa 4.83 mm - - -
1788025440 11.67° C 96% 1022.4 hPa 4.83 mm - - -
1788025140 12.22° C 96% 1022.3 hPa 4.83 mm - - -
1788024842 12.22° C 95% 1022.3 hPa 4.83 mm - - -
1788024540 12.78° C 93% 1022 hPa 4.83 mm - - -
1788024240 13.33° C 85% 1023 hPa 7.11 mm - - -
1788023939 13.89° C 82% 1022.5 hPa 0.76 mm - - -
1788023651 13.33° C 87% 1020.3 hPa 0.76 mm - - -
1788023339 12.78° C 95% 1020.8 hPa 0.76 mm - - -
1788023039 13.33° C 95% 1021.4 hPa 0.76 mm - - -
1788022740 14.44° C 97% 1021.5 hPa 0.76 mm - - -
1788022440 15° C 97% 1021.6 hPa 0.76 mm - - -
1788022140 15° C 97% 1021.7 hPa 0.76 mm - - -
1788021839 15° C 96% 1022 hPa 0.76 mm - - -
1788021540 15° C 96% 1022.1 hPa 0.76 mm - - -
1788021239 14.44° C 95% 1022.2 hPa 0.76 mm - - -

* Rain since midnight (hover to see other rain measurements)
** Current wind speed in m/s (hover to see current wind gust speed)